• în România
  • Lista ţărilor
  • Pe 7 zile
  • Temperatura apei
  • Hartă satelitară
  • Meteo pe hartă
  • Widget-uri
  • user-avatar
    Intrare

    Meteo pe oră la Gyor

    Astăzi, 22 Iulie, Duminică

    Timp Temperatura Precipitaţii Vânt Presiune Umiditate
    00:00 +20°C° 0,3 mm 2 m/s 747 mmHg 83%
    01:00 +20°C° 0 mm 1 m/s 748 mmHg 85%
    02:00 +20°C° 0,1 mm 1 m/s 747 mmHg 86%
    03:00 +20°C° 0,1 mm 1 m/s 747 mmHg 87%
    04:00 +20°C° 0,1 mm 1 m/s 747 mmHg 87%
    05:00 +21°C° 0,2 mm 1 m/s 747 mmHg 84%
    06:00 +20°C° 0,2 mm 2 m/s 748 mmHg 81%
    07:00 +21°C° 0,2 mm 2 m/s 748 mmHg 78%
    08:00 +24°C° 0 mm 2 m/s 748 mmHg 71%
    09:00 +25°C° 0 mm 3 m/s 747 mmHg 63%
    10:00 +27°C° 0 mm 3 m/s 747 mmHg 56%
    11:00 +28°C° 0,1 mm 3 m/s 747 mmHg 53%
    12:00 +29°C° 0,1 mm 4 m/s 747 mmHg 50%
    13:00 +30°C° 0,1 mm 4 m/s 747 mmHg 47%
    14:00 +29°C° 0,2 mm 4 m/s 747 mmHg 49%
    15:00 +29°C° 0,2 mm 4 m/s 746 mmHg 50%
    16:00 +29°C° 0,2 mm 4 m/s 746 mmHg 51%
    17:00 +28°C° 0 mm 4 m/s 746 mmHg 55%
    18:00 +27°C° 0 mm 4 m/s 746 mmHg 60%
    19:00 +26°C° 0 mm 4 m/s 746 mmHg 64%
    20:00 +24°C° 0 mm 3 m/s 746 mmHg 69%
    21:00 +22°C° 0 mm 3 m/s 747 mmHg 73%
    22:00 +21°C° 0 mm 3 m/s 747 mmHg 78%
    23:00 +20°C° 0 mm 3 m/s 747 mmHg 79%

    Mâine, 23 Iulie, Luni

    Timp Temperatura Precipitaţii Vânt Presiune Umiditate
    00:00 +20°C° 0 mm 4 m/s 747 mmHg 81%
    01:00 +20°C° 0 mm 4 m/s 747 mmHg 82%
    02:00 +20°C° 0,1 mm 4 m/s 747 mmHg 83%
    03:00 +19°C° 0,1 mm 4 m/s 747 mmHg 84%
    04:00 +19°C° 0,1 mm 5 m/s 747 mmHg 85%
    05:00 +20°C° 0,4 mm 5 m/s 747 mmHg 83%
    06:00 +21°C° 0,4 mm 6 m/s 747 mmHg 80%
    07:00 +22°C° 0,4 mm 6 m/s 747 mmHg 78%
    08:00 +22°C° 0,9 mm 6 m/s 747 mmHg 77%
    09:00 +22°C° 0,9 mm 7 m/s 747 mmHg 77%
    10:00 +23°C° 0,9 mm 7 m/s 747 mmHg 76%
    11:00 +24°C° 0,5 mm 7 m/s 747 mmHg 71%
    12:00 +26°C° 0,5 mm 7 m/s 747 mmHg 66%
    13:00 +27°C° 0,5 mm 7 m/s 747 mmHg 61%
    14:00 +28°C° 0 mm 7 m/s 747 mmHg 57%
    15:00 +29°C° 0 mm 7 m/s 747 mmHg 53%
    16:00 +30°C° 0 mm 7 m/s 747 mmHg 48%
    17:00 +29°C° 0 mm 6 m/s 747 mmHg 53%
    18:00 +28°C° 0 mm 6 m/s 747 mmHg 57%
    19:00 +27°C° 0 mm 5 m/s 748 mmHg 61%
    20:00 +26°C° 0 mm 5 m/s 748 mmHg 63%
    21:00 +25°C° 0 mm 5 m/s 749 mmHg 66%
    22:00 +23°C° 0 mm 5 m/s 749 mmHg 68%
    23:00 +22°C° 0 mm 5 m/s 749 mmHg 70%

    Poimâine, 24 Iulie, Marţi

    Timp Temperatura Precipitaţii Vânt Presiune Umiditate
    00:00 +21°C° 0 mm 5 m/s 749 mmHg 72%
    01:00 +21°C° 0 mm 5 m/s 749 mmHg 74%
    02:00 +20°C° 0 mm 5 m/s 749 mmHg 75%
    03:00 +20°C° 0 mm 5 m/s 749 mmHg 76%
    04:00 +19°C° 0 mm 5 m/s 749 mmHg 77%
    05:00 +20°C° 0 mm 5 m/s 749 mmHg 73%
    06:00 +21°C° 0 mm 6 m/s 749 mmHg 69%
    07:00 +23°C° 0 mm 6 m/s 749 mmHg 65%
    08:00 +24°C° 0 mm 6 m/s 749 mmHg 60%
    09:00 +27°C° 0 mm 6 m/s 749 mmHg 56%
    10:00 +28°C° 0 mm 6 m/s 749 mmHg 51%
    11:00 +29°C° 0 mm 6 m/s 749 mmHg 48%
    12:00 +30°C° 0 mm 6 m/s 748 mmHg 45%
    13:00 +32°C° 0 mm 5 m/s 748 mmHg 42%
    14:00 +32°C° 0 mm 6 m/s 748 mmHg 42%
    15:00 +32°C° 0 mm 6 m/s 748 mmHg 42%
    16:00 +32°C° 0 mm 6 m/s 747 mmHg 42%
    17:00 +30°C° 0 mm 5 m/s 748 mmHg 47%
    18:00 +28°C° 0 mm 4 m/s 748 mmHg 53%
    19:00 +27°C° 0 mm 4 m/s 748 mmHg 58%
    20:00 +25°C° 0 mm 3 m/s 748 mmHg 62%
    21:00 +24°C° 0 mm 3 m/s 748 mmHg 66%
    22:00 +22°C° 0 mm 3 m/s 749 mmHg 70%
    23:00 +21°C° 0 mm 3 m/s 748 mmHg 73%

    25 Iulie, Miercuri

    Timp Temperatura Precipitaţii Vânt Presiune Umiditate
    00:00 +20°C° 0 mm 3 m/s 748 mmHg 76%
    01:00 +20°C° 0 mm 2 m/s 748 mmHg 78%
    02:00 +19°C° 0 mm 2 m/s 748 mmHg 80%
    03:00 +19°C° 0 mm 2 m/s 748 mmHg 82%
    04:00 +18°C° 0 mm 2 m/s 749 mmHg 84%
    05:00 +20°C° 0 mm 2 m/s 749 mmHg 79%
    06:00 +21°C° 0 mm 3 m/s 749 mmHg 74%
    07:00 +24°C° 0 mm 3 m/s 749 mmHg 69%
    08:00 +26°C° 0 mm 4 m/s 749 mmHg 62%
    09:00 +27°C° 0 mm 4 m/s 749 mmHg 55%
    10:00 +29°C° 0 mm 5 m/s 749 mmHg 48%
    11:00 +30°C° 0 mm 5 m/s 748 mmHg 45%
    12:00 +32°C° 0 mm 5 m/s 748 mmHg 42%
    13:00 +33°C° 0 mm 5 m/s 748 mmHg 40%
    14:00 +33°C° 0 mm 5 m/s 748 mmHg 40%
    15:00 +33°C° 0 mm 5 m/s 747 mmHg 40%
    16:00 +33°C° 0 mm 5 m/s 747 mmHg 40%
    17:00 +30°C° 0 mm 4 m/s 747 mmHg 46%
    18:00 +29°C° 0 mm 4 m/s 747 mmHg 52%
    19:00 +27°C° 0 mm 3 m/s 747 mmHg 58%
    20:00 +26°C° 0 mm 3 m/s 748 mmHg 64%
    21:00 +25°C° 0 mm 3 m/s 748 mmHg 69%
    22:00 +22°C° 0 mm 3 m/s 748 mmHg 74%
    23:00 +22°C° 0 mm 3 m/s 748 mmHg 77%

    26 Iulie, Joi

    Timp Temperatura Precipitaţii Vânt Presiune Umiditate
    00:00 +21°C° 0 mm 3 m/s 748 mmHg 79%
    01:00 +20°C° 0 mm 3 m/s 748 mmHg 81%
    02:00 +20°C° 0 mm 3 m/s 748 mmHg 83%
    03:00 +20°C° 0 mm 3 m/s 748 mmHg 84%
    04:00 +19°C° 0 mm 3 m/s 748 mmHg 86%
    05:00 +20°C° 0 mm 3 m/s 749 mmHg 79%
    06:00 +22°C° 0 mm 3 m/s 749 mmHg 73%
    07:00 +24°C° 0 mm 3 m/s 749 mmHg 67%
    08:00 +26°C° 0 mm 4 m/s 749 mmHg 61%
    09:00 +28°C° 0 mm 4 m/s 749 mmHg 54%
    10:00 +29°C° 0 mm 4 m/s 749 mmHg 47%
    11:00 +30°C° 0 mm 4 m/s 749 mmHg 44%
    12:00 +32°C° 0 mm 4 m/s 749 mmHg 41%
    13:00 +33°C° 0 mm 4 m/s 748 mmHg 38%
    14:00 +33°C° 0 mm 4 m/s 748 mmHg 38%
    15:00 +33°C° 0 mm 5 m/s 748 mmHg 38%
    16:00 +33°C° 0 mm 5 m/s 748 mmHg 38%
    17:00 +32°C° 0 mm 4 m/s 748 mmHg 44%
    18:00 +29°C° 0 mm 4 m/s 748 mmHg 50%
    19:00 +28°C° 0 mm 3 m/s 748 mmHg 56%
    20:00 +27°C° 0 mm 3 m/s 749 mmHg 61%
    21:00 +25°C° 0 mm 3 m/s 749 mmHg 66%
    22:00 +24°C° 0 mm 3 m/s 749 mmHg 71%
    23:00 +22°C° 0 mm 3 m/s 749 mmHg 73%

    27 Iulie, Vineri

    Timp Temperatura Precipitaţii Vânt Presiune Umiditate
    00:00 +22°C° 0 mm 3 m/s 749 mmHg 76%
    01:00 +21°C° 0 mm 3 m/s 749 mmHg 78%
    02:00 +21°C° 0 mm 3 m/s 749 mmHg 79%
    03:00 +20°C° 0 mm 3 m/s 749 mmHg 80%
    04:00 +20°C° 0 mm 3 m/s 749 mmHg 81%
    05:00 +21°C° 0 mm 3 m/s 749 mmHg 76%
    06:00 +22°C° 0 mm 3 m/s 749 mmHg 71%
    07:00 +23°C° 0 mm 4 m/s 749 mmHg 66%
    08:00 +26°C° 0 mm 4 m/s 749 mmHg 60%
    09:00 +28°C° 0 mm 4 m/s 749 mmHg 55%
    10:00 +30°C° 0 mm 4 m/s 749 mmHg 49%
    11:00 +32°C° 0 mm 4 m/s 749 mmHg 46%
    12:00 +33°C° 0 mm 4 m/s 748 mmHg 43%
    13:00 +34°C° 0 mm 4 m/s 748 mmHg 40%
    14:00 +34°C° 0 mm 4 m/s 748 mmHg 41%
    15:00 +33°C° 0 mm 4 m/s 748 mmHg 42%
    16:00 +33°C° 0 mm 4 m/s 748 mmHg 43%
    17:00 +32°C° 0 mm 4 m/s 748 mmHg 48%
    18:00 +29°C° 0 mm 3 m/s 748 mmHg 53%
    19:00 +28°C° 0 mm 3 m/s 748 mmHg 58%
    20:00 +27°C° 0,1 mm 2 m/s 748 mmHg 63%
    21:00 +25°C° 0,1 mm 2 m/s 748 mmHg 68%
    22:00 +24°C° 0,1 mm 2 m/s 748 mmHg 73%
    23:00 +23°C° 0 mm 2 m/s 748 mmHg 75%
    Arată mai mult